Retour au catalogue

STARLINK-11230

ActifCommunicationsVLEO
NORAD 61053·PAYLOAD·🇺🇸 United States

Lancé Sep 13, 2024 depuis Vandenberg Space Force Base

Loading…

Prochains Passages (prochaines 24 heures)

TLE

FraisSource: CelesTrak SupGP

Époque: Sep 15, 2026, 02:45 UTC

1 61053C 24164D   26258.11506944  .00032150  00000+0  26468-3 0  2582
2 61053  53.1558  97.3189 0000953  80.7332 234.4324 15.69707433    19

Suivez STARLINK-11230 en temps réel avec AllMySat

Download on the App Store